[[{"header":{"parameterUnit":"m.s-1","parameterCategory":2,"la1":30.2991,"la2":30.254,"lo1":-89.0895,"lo2":-89.0444,"dy":0.0017,"dx":0.0017,"nx":28,"ny":28,"refTime":"2024-04-01T21:00:00:Z","depth":"0","parameterNumber":2,"parameterNumberName":"U-component_of_CURRENTS"},"data":[0,0,0,0,0,0,0,0,0,0,0,0,0,0,0,0,0,0,0,0,0,0,0,0,0,0,0,0,0,0,0,0,0,0,0,0,0,0,0,0,0,0,0,0,0,0,0,0,0,0,0,0,0,0,0,0,0,0,0.24,0.2401,0,0.2424,0.2424,0.2424,0.2412,0.2411,0.2411,0.241,0.241,0.241,0.2411,0,0,0,0,0,0,0,0,0,0,0,0,0,0.2356,0.2357,0.24,0.2401,0.2401,0.2424,0.2424,0.2424,0.2412,0.2411,0.241,0.241,0.241,0.241,0.2411,0,0,0,0,0,0,0,0,0,0,0,0,0,0.2376,0.2357,0.24,0.2399,0.2399,0.2424,0.2424,0.2424,0.2412,0.2411,0.241,0.241,0.2409,0.241,0.2411,0.2429,0,0,0.2413,0.2413,0,0,0,0,0,0,0,0,0.2374,0.2377,0.2399,0.2399,0.24,0.2416,0.2408,0.2425,0.2412,0.2405,0.241,0.2409,0.2411,0.2412,0.2415,0.2429,0.2429,0.2413,0.2413,0.2413,0.2413,0,0,0,0,0,0,0,0.2373,0.2376,0.2408,0.2399,0.24,0.2401,0.2403,0.2411,0.241,0.2406,0.2405,0.2411,0.2411,0.2415,0.2415,0.2429,0.2413,0.2413,0.2414,0.2414,0.2477,0.2478,0,0,0,0,0,0,0.2374,0.2375,0.2407,0.2409,0.2387,0.2403,0.2405,0.241,0.241,0.2411,0.2412,0.241,0.2414,0.2414,0.2415,0.2449,0.2413,0.2414,0.2414,0.2475,0.2477,0.2478,0,0,0,0,0,0,0.2373,0.2377,0.2406,0.2394,0.2398,0.2404,0.241,0.2411,0.2417,0.2415,0.2414,0.2418,0.2414,0.2414,0.2432,0.2448,0.2414,0.2415,0.2474,0.2476,0.2478,0.2508,0,0,0,0,0,0,0.2372,0.2376,0.2381,0.2394,0.2398,0.2426,0.2411,0.2412,0.2423,0.2421,0.2421,0.242,0.2413,0.2431,0.2432,0.2448,0.2415,0.2472,0.2475,0.2477,0.2505,0.251,0.2515,0,0,0,0,0,0.237,0.2378,0.2381,0.2385,0.2404,0.2427,0.243,0.243,0.2424,0.2432,0.2434,0.242,0.2447,0.2433,0.2434,0.245,0.2471,0.2474,0.2477,0.2503,0.2509,0.2515,0,0,0,0,0,0,0.2358,0.2378,0.2381,0.2394,0.2412,0.2425,0.2434,0.2437,0.2446,0.2444,0.2436,0.2436,0.2461,0.2455,0.2439,0.2477,0.2457,0.2461,0.2477,0.2483,0.2488,0.2492,0.2416,0,0,0,0,0,0.236,0.2372,0.2392,0.2403,0.2414,0.2426,0.2436,0.244,0.245,0.2453,0.2454,0.2459,0.2475,0.2477,0.2489,0.2507,0.2516,0.252,0.2525,0.2529,0.2536,0.2568,0.2576,0.2488,0.2488,0.2488,0,0,0.2357,0.2371,0.2377,0.2402,0.2416,0.2433,0.243,0.245,0.2463,0.2453,0.2469,0.248,0.2486,0.2509,0.2519,0.2504,0.2561,0.2533,0.2536,0.254,0.2572,0.258,0.2588,0.249,0.2489,0.2489,0,0,0.2362,0.2375,0.2388,0.2406,0.2433,0.2442,0.2451,0.247,0.2478,0.2501,0.2501,0.2524,0.2536,0.2549,0.2555,0.2597,0.2591,0.2599,0.262,0.2651,0.2658,0.2665,0.2691,0.27,0.2594,0.2594,0.2594,0,0.2358,0.2375,0.2396,0.2416,0.243,0.2447,0.2465,0.248,0.2502,0.2521,0.2509,0.2554,0.2557,0.2594,0.2607,0.2608,0.2622,0.2593,0.2657,0.2664,0.267,0.2695,0.2704,0.2596,0.2596,0.2596,0.2596,0,0.2374,0.2388,0.24,0.2427,0.245,0.2467,0.2495,0.2518,0.2529,0.2548,0.2591,0.2601,0.2628,0.2634,0.2631,0.2679,0.2675,0.2664,0.2639,0.268,0.2704,0.2713,0.2599,0.2598,0.2598,0.2597,0,0,0.2353,0.24,0.24,0.2417,0.2456,0.2475,0.251,0.255,0.2578,0.2602,0.264,0.267,0.2683,0.2693,0.2696,0.2718,0.2774,0.2709,0.2709,0.273,0.2844,0.2844,0.2854,0.2772,0.2773,0.2775,0.2844,0,0.2353,0.2385,0.241,0.2438,0.2459,0.2495,0.2524,0.2568,0.2604,0.2647,0.2677,0.2712,0.2703,0.2718,0.2744,0.2772,0.2798,0.2756,0.2805,0.2807,0.2798,0.2865,0.2812,0.287,0.2853,0.2854,0.2855,0,0.235,0.2375,0.24,0.2449,0.2461,0.248,0.2541,0.2574,0.2647,0.268,0.273,0.2754,0.2806,0.2782,0.2851,0.2825,0.2842,0.2854,0.2856,0.2853,0.2824,0.2826,0.2887,0.2882,0.2869,0.2868,0.2867,0,0.2318,0.2363,0.238,0.2396,0.2455,0.2478,0.2511,0.2583,0.2619,0.2706,0.2742,0.2806,0.284,0.2875,0.2913,0.2886,0.2986,0.2948,0.2964,0.2963,0.2927,0.2921,0.2984,0.2998,0.2998,0.2998,0.2998,0,0.23,0.231,0.2365,0.2374,0.2401,0.2458,0.2496,0.255,0.2627,0.2676,0.2751,0.28,0.2866,0.2928,0.2945,0.2999,0.3017,0.2989,0.2991,0.2937,0.2931,0.293,0.2906,0.3,0.3,0.2999,0.2999,0,0.225,0.2284,0.2305,0.2364,0.2382,0.2402,0.247,0.2502,0.259,0.2658,0.2687,0.2811,0.2907,0.297,0.3046,0.3044,0.3017,0.3096,0.3031,0.3024,0.301,0.2989,0.2837,0.274,0.3118,0.3119,0.3119,0,0.2224,0.2233,0.2281,0.229,0.231,0.2351,0.2373,0.2466,0.2511,0.2658,0.2688,0.282,0.2906,0.304,0.3088,0.3147,0.3041,0.3107,0.3042,0.3028,0.3006,0.2803,0.2717,0.3006,0.3005,0.3005,0.3005,0,0.2184,0.2196,0.2217,0.2238,0.2256,0.2276,0.2328,0.2355,0.2472,0.255,0.2666,0.2753,0.2922,0.3001,0.3107,0.3115,0.2977,0.3099,0.3103,0.295,0.2713,0.2615,0.294,0.3001,0.3002,0.3002,0.3002,0.3002,0.2151,0.2153,0.2183,0.2191,0.2202,0.2205,0.2197,0.2273,0.2342,0.2446,0.2583,0.2699,0.2906,0.3064,0.3063,0.3082,0.2953,0.3023,0.3008,0.2809,0.2682,0.3005,0.3054,0.3054,0.3055,0.3056,0.3056,0,0.2134,0.2141,0.2141,0.2146,0.2115,0.2146,0.2164,0.215,0.22,0.235,0.2454,0.2687,0.2824,0.296,0.3094,0.3037,0.2815,0.2962,0.2693,0.2619,0.2962,0.2931,0.2933,0.2933,0.2933,0.2933,0.2933,0.2933,0.2138,0.213,0.2122,0.2067,0.2051,0.1992,0.1977,0.198,0.2055,0.2177,0.2315,0.2457,0.2771,0.3022,0.3081,0.3008,0.2777,0.2635,0.2579,0.291,0.2914,0.2918,0.2886,0.2879,0.2878,0.2111,0.2106,0.2102]},{"header":{"parameterUnit":"m.s-1","parameterCategory":2,"la1":30.2991,"la2":30.254,"lo1":-89.0895,"lo2":-89.0444,"dy":0.0017,"dx":0.0017,"nx":28,"ny":28,"refTime":"2024-04-01T21:00:00:Z","depth":"0","parameterNumber":3,"parameterNumberName":"V-component_of_CURRENTS"},"data":[0,0,0,0,0,0,0,0,0,0,0,0,0,0,0,0,0,0,0,0,0,0,0,0,0,0,0,0,0,0,0,0,0,0,0,0,0,0,0,0,0,0,0,0,0,0,0,0,0,0,0,0,0,0,0,0,0,0,0.0179,0.0179,0,0.0122,0.0121,0.012,0.0079,0.0079,0.0078,0.0078,-0.0014,-0.0016,-0.0018,0,0,0,0,0,0,0,0,0,0,0,0,0,0.021,0.021,0.0179,0.0179,0.0178,0.0122,0.0121,0.012,0.0079,0.0079,0.0078,0.0078,-0.0013,-0.0016,-0.0018,0,0,0,0,0,0,0,0,0,0,0,0,0,0.0178,0.021,0.0179,0.0152,0.0149,0.0122,0.0121,0.012,0.0079,0.0079,0.0078,0.0078,-0.0012,-0.0015,-0.0019,-0.0032,0,0,-0.0029,-0.003,0,0,0,0,0,0,0,0,0.018,0.0177,0.0156,0.0153,0.015,0.0108,0.0098,0.0068,0.0079,0.0104,0.0078,0.0078,0.0025,0.0019,0.0007,-0.0037,-0.0041,-0.0029,-0.0031,-0.0033,-0.0034,0,0,0,0,0,0,0,0.0182,0.0179,0.0155,0.0156,0.0152,0.0128,0.0123,0.0092,0.0065,0.0102,0.0099,0.0095,0.0023,0.0011,0.0005,-0.0042,-0.0029,-0.0032,-0.0034,-0.0035,-0.0098,-0.0097,0,0,0,0,0,0,0.0195,0.0181,0.0157,0.0154,0.0166,0.0128,0.0122,0.0121,0.0066,0.0058,0.0095,0.0093,0.0016,0.0009,0.0001,-0.0006,-0.0033,-0.0036,-0.0038,-0.0098,-0.0097,-0.0097,0,0,0,0,0,0,0.0196,0.0193,0.0159,0.0167,0.0161,0.0128,0.0126,0.012,0.011,0.0062,0.0053,0.0092,0.0016,0.0006,-0.0019,-0.001,-0.0037,-0.004,-0.0098,-0.0098,-0.0097,-0.0028,0,0,0,0,0,0,0.0197,0.0194,0.0198,0.0168,0.0161,0.0151,0.0127,0.0119,0.0108,0.0105,0.0056,0.0047,0.0015,-0.0013,-0.0022,-0.0015,-0.0043,-0.0099,-0.0098,-0.0097,-0.003,-0.0025,-0.002,0,0,0,0,0,0.0198,0.0208,0.0198,0.0195,0.0167,0.0151,0.0146,0.0119,0.0108,0.0108,0.0077,0.0049,-0.0015,-0.0016,-0.0026,-0.002,-0.0099,-0.0098,-0.0097,-0.0033,-0.0026,-0.002,0,0,0,0,0,0,0.0223,0.0204,0.0192,0.0196,0.0178,0.0145,0.0143,0.0125,0.01,0.0099,0.0052,0.0041,0.0023,-0.0008,-0.0007,-0.0036,-0.0062,-0.0063,-0.0009,-0.0003,0.0002,0.0021,-0.0046,0,0,0,0,0,0.0231,0.0233,0.0209,0.0211,0.0206,0.0176,0.0166,0.0151,0.0125,0.0114,0.008,0.0045,0.0018,0.0001,-0.0029,-0.0045,-0.0073,-0.0048,-0.0043,-0.0038,-0.003,-0.0067,-0.0064,-0.0094,-0.0094,-0.0094,0,0,0.0241,0.0231,0.0232,0.0217,0.0201,0.0202,0.0169,0.0163,0.0163,0.0108,0.0097,0.0063,0.0018,0.0002,-0.0009,-0.0023,-0.0043,-0.0037,-0.0033,-0.0027,-0.0066,-0.0063,-0.006,-0.0094,-0.0094,-0.0094,0,0,0.0267,0.0255,0.0267,0.0257,0.0242,0.0225,0.0227,0.02,0.0187,0.0171,0.0135,0.0107,0.0063,0.0034,0.0013,0.0028,-0.0013,0.0019,0.0059,0.0023,0.0025,0.0027,0.0004,0.0003,0.0021,0.0021,0.0021,0,0.0281,0.029,0.0268,0.0277,0.0275,0.0241,0.0255,0.0238,0.0206,0.02,0.0178,0.0119,0.0078,0.006,0.0065,0.004,0.0019,0.004,0.0031,0.0031,0.0032,0.0008,0.0006,0.0024,0.0024,0.0023,0.0023,0,0.0314,0.0321,0.0328,0.033,0.0326,0.033,0.0309,0.0303,0.0283,0.0262,0.024,0.0183,0.0148,0.013,0.01,0.0088,0.0073,0.0043,0.0018,0.0039,0.0013,0.001,0.0029,0.0028,0.0027,0.0026,0,0,0.0347,0.0352,0.0354,0.0367,0.0354,0.036,0.0363,0.0357,0.0368,0.0324,0.0326,0.0269,0.0238,0.0213,0.0168,0.0135,0.0117,0.0099,0.0095,0.0083,0.0051,0.0047,0.0043,0.0088,0.0088,0.0087,0.0035,0,0.0379,0.0411,0.0402,0.0436,0.0452,0.0428,0.0438,0.0429,0.041,0.0404,0.0343,0.0326,0.027,0.0256,0.0215,0.0144,0.0111,0.0135,0.0026,0.0024,0.0022,0.0039,0.0079,0.0036,0.0031,0.0031,0.003,0,0.0416,0.0433,0.0472,0.0496,0.0502,0.0518,0.0534,0.0539,0.0518,0.0501,0.0468,0.042,0.0369,0.0315,0.0207,0.0227,0.015,0.0089,0.0084,0.0055,0.0013,0.001,0.003,-0.0082,0.0025,0.0025,0.0026,0,0.0456,0.0484,0.052,0.0525,0.0545,0.0564,0.0577,0.0572,0.0591,0.0568,0.0578,0.0498,0.0469,0.036,0.0235,0.022,0.0117,0.0074,-0.0003,-0.0004,-0.0004,-0.0005,-0.0101,-0.0003,-0.0003,-0.0003,-0.0003,0,0.0495,0.0525,0.0546,0.0568,0.0621,0.0618,0.0671,0.0669,0.0678,0.0721,0.0638,0.0648,0.048,0.0399,0.0268,0.0135,0.0138,0.0014,-0.0017,0.0022,0.0024,-0.0102,-0.0186,-0.0005,-0.0005,-0.0004,-0.0004,0,0.0534,0.0543,0.0592,0.0626,0.0644,0.0686,0.074,0.0777,0.078,0.0833,0.0832,0.0761,0.0662,0.0496,0.032,0.0193,-0.0015,0.0002,0.0068,0.0046,-0.0136,-0.0216,-0.0353,-0.0424,-0.0092,-0.0093,-0.0093,0,0.0556,0.0585,0.064,0.0678,0.07,0.0759,0.0803,0.0825,0.0875,0.0914,0.0949,0.0871,0.0846,0.059,0.0345,0.0123,-0.0016,-0.0002,-0.0033,-0.0131,-0.0245,-0.0296,-0.035,-0.0006,-0.0005,-0.0005,-0.0005,0,0.0603,0.0621,0.0663,0.074,0.0798,0.0867,0.0939,0.0995,0.1041,0.1094,0.1152,0.1139,0.0911,0.0709,0.0396,0.0224,-0.008,-0.0003,-0.0126,-0.0199,-0.024,-0.0326,0.0018,-0.0002,-0.0002,-0.0002,-0.0003,-0.0003,0.064,0.0679,0.0737,0.0812,0.0879,0.0977,0.1051,0.1141,0.1245,0.1357,0.132,0.1357,0.1068,0.065,0.0374,-0.0049,-0.0075,-0.0155,-0.0248,-0.0291,-0.0354,0.0006,-0.0039,-0.0039,-0.004,-0.004,-0.004,0,0.0695,0.0741,0.0807,0.0903,0.0981,0.1011,0.1142,0.1232,0.1378,0.1497,0.156,0.1495,0.1101,0.0684,0.011,-0.0212,-0.0348,-0.0381,-0.0446,-0.0495,-0.0183,-0.0171,-0.0219,-0.0219,-0.0219,-0.0219,-0.0219,-0.0219,0.0731,0.0804,0.0836,0.0974,0.1042,0.1162,0.1245,0.1389,0.151,0.1691,0.1776,0.1815,0.1611,0.0511,-0.0238,-0.045,-0.0679,-0.0707,-0.085,-0.0631,-0.0616,-0.0602,-0.0609,-0.0748,-0.0749,-0.1093,-0.1097,-0.1099]}],[{"header":{"parameterUnit":"m.s-1","parameterCategory":2,"la1":30.2991,"la2":30.254,"lo1":-89.0895,"lo2":-89.0444,"dy":0.0017,"dx":0.0017,"nx":28,"ny":28,"refTime":"2024-04-01T21:00:00:Z","depth":"2","parameterNumber":2,"parameterNumberName":"U-component_of_CURRENTS"},"data":[0,0,0,0,0,0,0,0,0,0,0,0,0,0,0,0,0,0,0,0,0,0,0,0,0,0,0,0,0,0,0,0,0,0,0,0,0,0,0,0,0,0,0,0,0,0,0,0,0,0,0,0,0,0,0,0,0,0,0.2362,0.2363,0,0.2386,0.2386,0.2386,0.2378,0.2377,0.2377,0.2377,0.238,0.2381,0.2381,0,0,0,0,0,0,0,0,0,0,0,0,0,0.2319,0.232,0.2362,0.2363,0.2363,0.2386,0.2386,0.2386,0.2378,0.2377,0.2377,0.2376,0.238,0.2381,0.2381,0,0,0,0,0,0,0,0,0,0,0,0,0,0.2338,0.232,0.2362,0.2363,0.2363,0.2386,0.2386,0.2386,0.2378,0.2377,0.2377,0.2376,0.238,0.2381,0.2381,0.2397,0,0,0.2384,0.2384,0,0,0,0,0,0,0,0,0.2337,0.234,0.2363,0.2363,0.2364,0.238,0.2373,0.2389,0.2378,0.2371,0.2377,0.2376,0.238,0.2381,0.2384,0.2397,0.2397,0.2384,0.2384,0.2384,0.2385,0,0,0,0,0,0,0,0.2336,0.2339,0.237,0.2363,0.2364,0.2366,0.2367,0.2376,0.2376,0.2371,0.2371,0.2377,0.238,0.2384,0.2384,0.2397,0.2384,0.2384,0.2385,0.2385,0.2448,0.2449,0,0,0,0,0,0,0.2337,0.2338,0.2369,0.2371,0.2351,0.2367,0.2369,0.2374,0.2377,0.2377,0.2377,0.2376,0.2383,0.2383,0.2384,0.242,0.2384,0.2385,0.2385,0.2447,0.2448,0.2449,0,0,0,0,0,0,0.2336,0.2339,0.2368,0.2356,0.236,0.2368,0.2374,0.2375,0.2383,0.2382,0.2381,0.2386,0.2382,0.2383,0.2402,0.2419,0.2385,0.2386,0.2445,0.2447,0.2449,0.248,0,0,0,0,0,0,0.2335,0.2339,0.2344,0.2356,0.2361,0.2388,0.2375,0.2376,0.2388,0.2387,0.2389,0.2388,0.2382,0.2401,0.2402,0.2419,0.2386,0.2443,0.2446,0.2448,0.2477,0.2483,0.2487,0,0,0,0,0,0.2333,0.2341,0.2344,0.2348,0.2367,0.2389,0.2391,0.2394,0.2389,0.2398,0.2401,0.2389,0.2417,0.2403,0.2404,0.2422,0.2442,0.2445,0.2448,0.2475,0.2482,0.2487,0,0,0,0,0,0,0.2322,0.2341,0.2345,0.2357,0.2376,0.2388,0.2398,0.2401,0.2411,0.241,0.2404,0.2404,0.243,0.2425,0.2409,0.2449,0.2428,0.2432,0.2448,0.2454,0.2459,0.2463,0.2387,0,0,0,0,0,0.2324,0.2336,0.2355,0.2367,0.2377,0.239,0.2399,0.2405,0.2415,0.2419,0.2421,0.2428,0.2444,0.2447,0.2459,0.2478,0.2486,0.2492,0.2497,0.2501,0.2507,0.2538,0.2546,0.2459,0.2459,0.2459,0,0,0.2322,0.2336,0.2342,0.2366,0.238,0.2396,0.2394,0.2414,0.2427,0.2419,0.2436,0.2448,0.2455,0.2479,0.2489,0.2474,0.2531,0.2504,0.2508,0.2511,0.2542,0.255,0.2557,0.2461,0.246,0.246,0,0,0.2327,0.234,0.2353,0.2371,0.2398,0.2407,0.2415,0.2435,0.2444,0.2468,0.2469,0.2493,0.2506,0.2518,0.2525,0.2566,0.2561,0.257,0.2591,0.2622,0.2629,0.2635,0.266,0.2668,0.2566,0.2566,0.2566,0,0.2325,0.2341,0.2361,0.238,0.2395,0.2412,0.2429,0.2445,0.2467,0.2486,0.2477,0.2523,0.2527,0.2563,0.2577,0.2577,0.2592,0.2565,0.2628,0.2634,0.264,0.2664,0.2673,0.2568,0.2568,0.2568,0.2567,0,0.234,0.2354,0.2365,0.2392,0.2414,0.2432,0.2459,0.2482,0.2495,0.2514,0.2558,0.2569,0.2596,0.2603,0.2601,0.2649,0.2645,0.2634,0.2609,0.2651,0.2673,0.2682,0.2571,0.257,0.2569,0.2569,0,0,0.232,0.2365,0.2365,0.2382,0.2421,0.2439,0.2474,0.2513,0.2541,0.2567,0.2605,0.2637,0.2651,0.2661,0.2665,0.2687,0.2742,0.2679,0.268,0.2699,0.281,0.2804,0.2813,0.2741,0.2743,0.2744,0.281,0,0.232,0.2351,0.2376,0.2403,0.2423,0.2459,0.2488,0.2531,0.2567,0.261,0.2641,0.2677,0.2669,0.2687,0.2712,0.274,0.2766,0.2725,0.2772,0.2774,0.2759,0.2823,0.259,0.263,0.2818,0.282,0.2821,0,0.2317,0.2342,0.2366,0.2414,0.2426,0.2445,0.2505,0.2538,0.2609,0.2643,0.2694,0.2719,0.277,0.2749,0.2817,0.2792,0.2809,0.282,0.2823,0.2812,0.2784,0.2619,0.2638,0.2835,0.2834,0.2833,0.2832,0,0.2286,0.233,0.2347,0.2363,0.242,0.2444,0.2477,0.2548,0.2583,0.267,0.2706,0.277,0.2806,0.2839,0.2878,0.2852,0.2948,0.2912,0.292,0.2919,0.2729,0.2709,0.296,0.296,0.2959,0.2959,0.2959,0,0.2268,0.2279,0.2333,0.2342,0.2369,0.2426,0.2465,0.2518,0.2594,0.2642,0.2716,0.2764,0.2831,0.2891,0.2908,0.2957,0.2977,0.2945,0.2945,0.2735,0.2716,0.2893,0.2885,0.2962,0.2961,0.2961,0.296,0,0.222,0.2254,0.2275,0.2334,0.2351,0.2372,0.2441,0.2472,0.256,0.2627,0.2656,0.2777,0.2869,0.2931,0.3004,0.2999,0.3039,0.3046,0.2801,0.2773,0.2977,0.297,0.3058,0.3059,0.3059,0.3059,0.306,0,0.2195,0.2204,0.2252,0.2262,0.2283,0.2324,0.2347,0.2439,0.2483,0.2627,0.2655,0.2783,0.2861,0.2987,0.3004,0.305,0.308,0.2857,0.2769,0.3001,0.2992,0.2984,0.2976,0.2521,0.2516,0.2513,0.251,0,0.2156,0.2169,0.219,0.2212,0.2232,0.2251,0.2304,0.2329,0.2444,0.2517,0.2628,0.2707,0.2841,0.2811,0.2895,0.2878,0.2833,0.2794,0.3096,0.2549,0.2504,0.2493,0.25,0.248,0.2483,0.2486,0.2487,0.2488,0.2124,0.2126,0.2157,0.2167,0.2179,0.2181,0.2174,0.2243,0.2306,0.2384,0.2519,0.2565,0.2627,0.2654,0.2593,0.2547,0.2743,0.2608,0.2613,0.2623,0.2567,0.2527,0.2496,0.2499,0.2502,0.2504,0.2506,0,0.2105,0.2115,0.2116,0.2123,0.2092,0.2126,0.2142,0.2115,0.2152,0.2246,0.2322,0.2197,0.221,0.2258,0.216,0.219,0.2102,0.2086,0.1943,0.1978,0.2008,0.1913,0.1672,0.1669,0.1666,0.1663,0,0,0.2107,0.2098,0.209,0.204,0.203,0.197,0.1954,0.193,0.1959,0.1945,0.1956,0.212,0.2225,0.1923,0.1898,0.1766,0.1839,0.1689,0.2369,0.2238,0.2263,0.2339,0.2239,0,0,0,0,0]},{"header":{"parameterUnit":"m.s-1","parameterCategory":2,"la1":30.2991,"la2":30.254,"lo1":-89.0895,"lo2":-89.0444,"dy":0.0017,"dx":0.0017,"nx":28,"ny":28,"refTime":"2024-04-01T21:00:00:Z","depth":"2","parameterNumber":3,"parameterNumberName":"V-component_of_CURRENTS"},"data":[0,0,0,0,0,0,0,0,0,0,0,0,0,0,0,0,0,0,0,0,0,0,0,0,0,0,0,0,0,0,0,0,0,0,0,0,0,0,0,0,0,0,0,0,0,0,0,0,0,0,0,0,0,0,0,0,0,0,0.0096,0.0095,0,0.004,0.004,0.0039,0.0,0.0,0.0,-0.0,-0.0089,-0.0091,-0.0093,0,0,0,0,0,0,0,0,0,0,0,0,0,0.0125,0.0125,0.0096,0.0095,0.0094,0.0041,0.004,0.0039,0.0,0.0,-0.0,-0.0,-0.0088,-0.0091,-0.0093,0,0,0,0,0,0,0,0,0,0,0,0,0,0.0094,0.0125,0.0096,0.007,0.0067,0.0041,0.004,0.0039,0.0,0.0,-0.0,-0.0,-0.0087,-0.0091,-0.0094,-0.0109,0,0,-0.0104,-0.0105,0,0,0,0,0,0,0,0,0.0096,0.0093,0.0074,0.0072,0.0068,0.0028,0.0018,-0.0012,0.0001,0.0024,-0.0,-0.0,-0.0052,-0.0058,-0.0069,-0.0113,-0.0117,-0.0104,-0.0106,-0.0108,-0.0109,0,0,0,0,0,0,0,0.0098,0.0095,0.0072,0.0074,0.007,0.0047,0.0042,0.0012,-0.0013,0.0022,0.002,0.0016,-0.0054,-0.0066,-0.0072,-0.0118,-0.0104,-0.0107,-0.0109,-0.011,-0.0172,-0.0171,0,0,0,0,0,0,0.011,0.0097,0.0074,0.0071,0.0083,0.0047,0.0041,0.004,-0.0012,-0.002,0.0016,0.0014,-0.006,-0.0068,-0.0075,-0.008,-0.0108,-0.0111,-0.0113,-0.0172,-0.0171,-0.0171,0,0,0,0,0,0,0.0111,0.0109,0.0076,0.0084,0.0078,0.0047,0.0045,0.0039,0.003,-0.0016,-0.0025,0.0014,-0.0061,-0.007,-0.0094,-0.0085,-0.0112,-0.0115,-0.0172,-0.0172,-0.0171,-0.0102,0,0,0,0,0,0,0.0112,0.011,0.0114,0.0085,0.0078,0.0068,0.0046,0.0039,0.0029,0.0026,-0.0021,-0.003,-0.0062,-0.0089,-0.0097,-0.009,-0.0118,-0.0173,-0.0172,-0.0171,-0.0104,-0.0099,-0.0094,0,0,0,0,0,0.0114,0.0124,0.0114,0.0111,0.0085,0.0069,0.0063,0.0039,0.0029,0.0029,-0.0001,-0.0028,-0.0091,-0.0091,-0.0101,-0.0094,-0.0173,-0.0172,-0.0171,-0.0107,-0.01,-0.0094,0,0,0,0,0,0,0.0138,0.012,0.0109,0.0113,0.0095,0.0063,0.0062,0.0045,0.0021,0.0021,-0.0025,-0.0036,-0.0053,-0.0083,-0.0083,-0.011,-0.0136,-0.0137,-0.0083,-0.0078,-0.0072,-0.0053,-0.012,0,0,0,0,0,0.0146,0.0149,0.0125,0.0128,0.0123,0.0094,0.0085,0.007,0.0046,0.0035,0.0002,-0.0031,-0.0058,-0.0074,-0.0104,-0.012,-0.0148,-0.0122,-0.0117,-0.0112,-0.0104,-0.0141,-0.0138,-0.0168,-0.0168,-0.0168,0,0,0.0156,0.0147,0.0148,0.0133,0.0118,0.012,0.0088,0.0082,0.0083,0.0029,0.002,-0.0014,-0.0058,-0.0074,-0.0084,-0.0098,-0.0117,-0.0111,-0.0107,-0.0101,-0.014,-0.0137,-0.0134,-0.0168,-0.0168,-0.0168,0,0,0.0183,0.0171,0.0184,0.0173,0.0159,0.0143,0.0145,0.0119,0.0107,0.0093,0.0057,0.003,-0.0013,-0.0041,-0.0062,-0.0047,-0.0087,-0.0056,-0.0016,-0.0052,-0.0049,-0.0048,-0.0071,-0.0072,-0.0054,-0.0054,-0.0054,0,0.0196,0.0206,0.0184,0.0193,0.0191,0.0159,0.0173,0.0156,0.0126,0.0121,0.01,0.0043,0.0002,-0.0016,-0.0011,-0.0035,-0.0056,-0.0034,-0.0044,-0.0043,-0.0042,-0.0067,-0.0069,-0.005,-0.0051,-0.0051,-0.0051,0,0.023,0.0237,0.0244,0.0246,0.0243,0.0248,0.0227,0.0222,0.0203,0.0183,0.0162,0.0106,0.0073,0.0054,0.0025,0.0013,-0.0003,-0.0031,-0.0056,-0.0035,-0.0063,-0.0066,-0.0045,-0.0047,-0.0048,-0.0048,0,0,0.0263,0.0267,0.027,0.0284,0.0271,0.0277,0.028,0.0275,0.0286,0.0244,0.0247,0.0191,0.0161,0.0136,0.0093,0.006,0.0042,0.0024,0.0021,0.0008,-0.0025,-0.003,-0.0035,0.0014,0.0013,0.0013,-0.0042,0,0.0295,0.0327,0.0318,0.0352,0.0368,0.0345,0.0354,0.0346,0.0329,0.0322,0.0263,0.0247,0.0193,0.018,0.0139,0.0068,0.0036,0.0061,-0.0049,-0.0052,-0.0055,-0.0038,-0.0033,-0.0081,-0.0046,-0.0046,-0.0047,0,0.0332,0.035,0.0388,0.0412,0.0418,0.0435,0.0451,0.0456,0.0435,0.0419,0.0387,0.034,0.029,0.0238,0.013,0.0151,0.0074,0.0013,0.0008,-0.0023,-0.0064,-0.01,-0.0089,-0.0053,-0.0053,-0.0052,-0.0052,0,0.0373,0.04,0.0436,0.0442,0.0461,0.0481,0.0494,0.049,0.0508,0.0485,0.0494,0.0416,0.0388,0.0281,0.0156,0.0143,0.0037,-0.0004,-0.0081,-0.0083,-0.0113,-0.0116,-0.0081,-0.0081,-0.0081,-0.008,-0.008,0,0.0412,0.0442,0.0463,0.0485,0.0538,0.0535,0.0588,0.0586,0.0594,0.0634,0.0554,0.0562,0.0398,0.0316,0.0188,0.0055,0.0058,-0.0066,-0.0096,-0.0087,-0.0087,-0.0094,-0.0095,-0.0083,-0.0082,-0.0082,-0.0081,0,0.0452,0.0461,0.0509,0.0543,0.0562,0.0603,0.0657,0.0692,0.0695,0.0744,0.0743,0.0671,0.0571,0.0407,0.0233,0.0109,-0.003,-0.0081,-0.005,-0.0076,-0.0135,-0.0131,-0.0175,-0.0176,-0.0176,-0.0177,-0.0177,0,0.0474,0.0503,0.0557,0.0595,0.0617,0.0676,0.0719,0.074,0.0787,0.0821,0.0852,0.0773,0.074,0.0485,0.024,0.0019,-0.0014,-0.0125,-0.0158,-0.0119,-0.0144,-0.014,-0.0136,-0.0171,-0.0172,-0.0172,-0.0172,0,0.0519,0.0538,0.0579,0.0655,0.0713,0.0779,0.0849,0.0902,0.0944,0.099,0.1039,0.1018,0.0785,0.0551,0.0241,0.0084,-0.0091,-0.0136,-0.011,-0.0141,-0.0118,-0.0142,-0.0138,-0.0174,-0.0174,-0.0174,-0.0174,-0.0174,0.0554,0.0592,0.0648,0.0723,0.0789,0.0882,0.0953,0.1029,0.1121,0.1192,0.1165,0.1129,0.0872,0.0466,0.0199,-0.0099,-0.0085,-0.0201,-0.02,-0.0198,-0.018,-0.0159,-0.0219,-0.0219,-0.0219,-0.0219,-0.0219,0,0.06,0.0648,0.0714,0.0807,0.088,0.0917,0.1039,0.1093,0.1211,0.1266,0.1296,0.1038,0.0792,0.0498,0.006,-0.0185,-0.0214,-0.0269,-0.0254,-0.025,-0.0247,-0.0232,-0.0285,-0.0285,-0.0286,-0.0287,0,0,0.063,0.0697,0.0729,0.0862,0.0936,0.1045,0.1121,0.1195,0.1249,0.1287,0.1266,0.1211,0.0873,0.0544,0.0206,-0.0041,-0.0089,-0.0093,-0.0015,0.0046,0.0052,-0.0185,-0.0154,0,0,0,0,0]}],[{"header":{"parameterUnit":"m.s-1","parameterCategory":2,"la1":30.2991,"la2":30.254,"lo1":-89.0895,"lo2":-89.0444,"dy":0.0017,"dx":0.0017,"nx":28,"ny":28,"refTime":"2024-04-01T21:00:00:Z","depth":"4","parameterNumber":2,"parameterNumberName":"U-component_of_CURRENTS"},"data":[0,0,0,0,0,0,0,0,0,0,0,0,0,0,0,0,0,0,0,0,0,0,0,0,0,0,0,0,0,0,0,0,0,0,0,0,0,0,0,0,0,0,0,0,0,0,0,0,0,0,0,0,0,0,0,0,0,0,0.1517,0.1518,0,0.1571,0.1571,0.1572,0.1618,0.1619,0.162,0.162,0.1688,0.1689,0.1691,0,0,0,0,0,0,0,0,0,0,0,0,0,0.1447,0.1448,0.1517,0.1518,0.1519,0.1571,0.1571,0.1572,0.1618,0.1619,0.162,0.1621,0.1688,0.1689,0.1691,0,0,0,0,0,0,0,0,0,0,0,0,0,0.1485,0.1448,0.1517,0.1549,0.1553,0.1571,0.1571,0.1572,0.1618,0.1619,0.162,0.1621,0.1687,0.1689,0.1691,0.1681,0,0,0.1696,0.1697,0,0,0,0,0,0,0,0,0.1483,0.1487,0.1544,0.1547,0.1551,0.1591,0.1572,0.161,0.1618,0.1591,0.162,0.1622,0.1657,0.1662,0.1667,0.1684,0.1687,0.1696,0.1697,0.1698,0.1699,0,0,0,0,0,0,0,0.148,0.1485,0.1536,0.1544,0.1549,0.1559,0.1565,0.1579,0.1617,0.1594,0.1598,0.1606,0.1659,0.1665,0.1669,0.1688,0.1696,0.1698,0.1699,0.17,0.1803,0.1805,0,0,0,0,0,0,0.1476,0.1483,0.1535,0.1538,0.1521,0.156,0.1567,0.1575,0.1617,0.1624,0.1605,0.1608,0.1661,0.1667,0.1671,0.1752,0.1698,0.17,0.1701,0.1801,0.1804,0.1805,0,0,0,0,0,0,0.1475,0.148,0.1533,0.1513,0.1521,0.156,0.1569,0.1576,0.1616,0.1625,0.1633,0.1642,0.1662,0.1669,0.1716,0.1751,0.1701,0.1702,0.1799,0.1802,0.1804,0.1855,0,0,0,0,0,0,0.1472,0.1479,0.15,0.1513,0.1522,0.1564,0.1569,0.1576,0.1618,0.1623,0.1659,0.1664,0.1664,0.1713,0.1718,0.1753,0.1704,0.1797,0.1801,0.1804,0.1851,0.1859,0.1866,0,0,0,0,0,0.147,0.1486,0.15,0.1507,0.1543,0.1565,0.1571,0.1601,0.1619,0.164,0.1669,0.1665,0.1737,0.1716,0.1721,0.1757,0.1796,0.18,0.1803,0.1848,0.1858,0.1866,0,0,0,0,0,0,0.1466,0.1493,0.1509,0.1533,0.156,0.1575,0.1601,0.1619,0.1657,0.1675,0.1683,0.169,0.1746,0.1745,0.1722,0.1798,0.1767,0.1772,0.18,0.1809,0.1816,0.1816,0.1705,0,0,0,0,0,0.1474,0.1497,0.152,0.1545,0.156,0.1588,0.1607,0.1628,0.1656,0.1676,0.1701,0.1731,0.1758,0.178,0.1801,0.1839,0.1841,0.1867,0.1875,0.1881,0.1885,0.192,0.1931,0.1818,0.1818,0.1818,0,0,0.148,0.1499,0.1514,0.1547,0.1571,0.1594,0.1603,0.1643,0.1671,0.1676,0.1735,0.1759,0.1775,0.1821,0.1846,0.183,0.1916,0.1885,0.189,0.1892,0.1925,0.1936,0.1946,0.1821,0.182,0.182,0,0,0.1491,0.1523,0.1543,0.1567,0.161,0.1624,0.1643,0.1679,0.1711,0.1761,0.1776,0.1823,0.1865,0.1883,0.1896,0.1956,0.1953,0.1971,0.2008,0.2043,0.2052,0.206,0.2081,0.209,0.1974,0.1974,0.1974,0,0.1501,0.1526,0.1553,0.1579,0.1604,0.164,0.1666,0.1697,0.1748,0.1782,0.1791,0.1874,0.1891,0.1943,0.1969,0.1972,0.1989,0.1971,0.2051,0.2059,0.2067,0.2086,0.2096,0.1977,0.1977,0.1977,0.1976,0,0.1516,0.155,0.1567,0.1608,0.1639,0.1671,0.1711,0.1758,0.1802,0.1834,0.1912,0.1939,0.1989,0.2005,0.2007,0.2075,0.2069,0.2056,0.2026,0.2081,0.2098,0.2107,0.1981,0.198,0.1979,0.1979,0,0,0.1496,0.1564,0.1572,0.1602,0.1661,0.1684,0.1744,0.1801,0.1851,0.1911,0.1973,0.2031,0.2062,0.2078,0.2093,0.2124,0.2194,0.2122,0.2122,0.2136,0.2272,0.2136,0.2133,0.2201,0.2203,0.2205,0.2263,0,0.1502,0.1549,0.1584,0.1638,0.1665,0.1723,0.1773,0.1837,0.1896,0.1966,0.2017,0.2082,0.2084,0.2123,0.2157,0.219,0.2222,0.2179,0.2222,0.2223,0.209,0.214,0.2211,0.227,0.2272,0.2274,0.2275,0,0.1496,0.1533,0.1584,0.1661,0.168,0.1723,0.1816,0.1866,0.1965,0.2021,0.2096,0.2137,0.2213,0.2197,0.2279,0.2258,0.2275,0.2287,0.2289,0.2148,0.2103,0.2203,0.2291,0.229,0.2289,0.2288,0.2287,0,0.1453,0.1529,0.1572,0.1598,0.1688,0.1738,0.1794,0.1892,0.1946,0.2065,0.2119,0.2206,0.2263,0.2304,0.2343,0.2326,0.2416,0.2387,0.2276,0.2267,0.2349,0.2339,0.2438,0.2438,0.2437,0.2437,0.2437,0,0.1425,0.1463,0.1565,0.1587,0.1652,0.1729,0.1808,0.1881,0.1987,0.2047,0.2148,0.2199,0.2297,0.2355,0.2372,0.2354,0.2443,0.2289,0.2275,0.2369,0.2362,0.2355,0.2345,0.2439,0.2439,0.2439,0.2438,0,0.1362,0.1427,0.1484,0.1593,0.1632,0.1681,0.1803,0.1853,0.1972,0.2053,0.2097,0.2224,0.23,0.2368,0.2441,0.2376,0.2381,0.2351,0.2458,0.2448,0.2201,0.2193,0.2222,0.2218,0.2214,0.2211,0.2209,0,0.1329,0.1355,0.1472,0.151,0.1564,0.1652,0.1704,0.1832,0.1884,0.2043,0.2067,0.2191,0.2259,0.2252,0.2336,0.2357,0.233,0.231,0.2239,0.2197,0.2181,0.2178,0.2175,0.2203,0.2202,0.2201,0.22,0,0.1269,0.1325,0.1372,0.1447,0.1512,0.1567,0.1658,0.1683,0.1822,0.1942,0.1992,0.2032,0.2112,0.2165,0.2204,0.2212,0.2308,0.2271,0.2277,0.2211,0.2174,0.2161,0.2162,0.2188,0.2189,0.2191,0.2191,0,0.1229,0.1244,0.1316,0.1366,0.144,0.1463,0.1522,0.1584,0.1647,0.182,0.1833,0.1965,0.2089,0.2091,0.2126,0.2128,0.2088,0.2005,0.2025,0.204,0.1952,0.1876,0.1792,0,0,0,0,0,0.118,0.1184,0.1229,0.1272,0.1338,0.1381,0.148,0.1543,0.1673,0.1661,0.1743,0.1807,0.1858,0.1932,0.1898,0.2047,0.2099,0.1998,0.2014,0.2118,0.2132,0.2047,0,0,0,0,0,0,0.1145,0.1185,0.1193,0.1182,0.1195,0.1251,0.1309,0.1398,0.1404,0.1546,0.1591,0.1694,0.1781,0.1862,0.1863,0.1884,0.1855,0.2085,0.208,0.211,0.2123,0.2135,0.2051,0,0,0,0,0]},{"header":{"parameterUnit":"m.s-1","parameterCategory":2,"la1":30.2991,"la2":30.254,"lo1":-89.0895,"lo2":-89.0444,"dy":0.0017,"dx":0.0017,"nx":28,"ny":28,"refTime":"2024-04-01T21:00:00:Z","depth":"4","parameterNumber":3,"parameterNumberName":"V-component_of_CURRENTS"},"data":[0,0,0,0,0,0,0,0,0,0,0,0,0,0,0,0,0,0,0,0,0,0,0,0,0,0,0,0,0,0,0,0,0,0,0,0,0,0,0,0,0,0,0,0,0,0,0,0,0,0,0,0,0,0,0,0,0,0,-0.0032,-0.0032,0,-0.0065,-0.0066,-0.0066,-0.0094,-0.0094,-0.0094,-0.0095,-0.0159,-0.0161,-0.0162,0,0,0,0,0,0,0,0,0,0,0,0,0,-0.0022,-0.0022,-0.0032,-0.0032,-0.0033,-0.0065,-0.0066,-0.0066,-0.0094,-0.0094,-0.0094,-0.0095,-0.0159,-0.0161,-0.0163,0,0,0,0,0,0,0,0,0,0,0,0,0,-0.0039,-0.0022,-0.0032,-0.005,-0.0052,-0.0065,-0.0066,-0.0066,-0.0094,-0.0094,-0.0094,-0.0095,-0.0158,-0.0161,-0.0163,-0.0171,0,0,-0.017,-0.0171,0,0,0,0,0,0,0,0,-0.0037,-0.0039,-0.0047,-0.0049,-0.0051,-0.0075,-0.0086,-0.0102,-0.0094,-0.0079,-0.0095,-0.0095,-0.0133,-0.0138,-0.0144,-0.0174,-0.0176,-0.017,-0.0171,-0.0172,-0.0173,0,0,0,0,0,0,0,-0.0036,-0.0038,-0.0046,-0.0047,-0.0049,-0.0066,-0.0068,-0.0089,-0.0105,-0.008,-0.0082,-0.0084,-0.0135,-0.0142,-0.0146,-0.0177,-0.017,-0.0172,-0.0173,-0.0174,-0.0216,-0.0216,0,0,0,0,0,0,-0.0028,-0.0037,-0.0045,-0.0047,-0.0044,-0.0066,-0.0069,-0.0068,-0.0104,-0.011,-0.0084,-0.0085,-0.0138,-0.0143,-0.0148,-0.0149,-0.0172,-0.0175,-0.0176,-0.0216,-0.0216,-0.0216,0,0,0,0,0,0,-0.0028,-0.0029,-0.0044,-0.0042,-0.0045,-0.0065,-0.0064,-0.0068,-0.0074,-0.0106,-0.0113,-0.0085,-0.0138,-0.0145,-0.0161,-0.0153,-0.0176,-0.0178,-0.0217,-0.0216,-0.0216,-0.0158,0,0,0,0,0,0,-0.0027,-0.0028,-0.0025,-0.0041,-0.0045,-0.0046,-0.0064,-0.0068,-0.0075,-0.0077,-0.011,-0.0117,-0.0139,-0.0158,-0.0164,-0.0156,-0.018,-0.0217,-0.0217,-0.0216,-0.0161,-0.0156,-0.0152,0,0,0,0,0,-0.0027,-0.0018,-0.0025,-0.0026,-0.004,-0.0046,-0.0049,-0.0066,-0.0074,-0.0073,-0.0095,-0.0115,-0.0159,-0.0159,-0.0166,-0.0159,-0.0217,-0.0217,-0.0216,-0.0162,-0.0157,-0.0152,0,0,0,0,0,0,-0.0013,-0.0021,-0.0028,-0.0023,-0.0032,-0.005,-0.005,-0.0062,-0.0078,-0.0079,-0.0112,-0.012,-0.0132,-0.0154,-0.0153,-0.0171,-0.0192,-0.0193,-0.0149,-0.0144,-0.0139,-0.0125,-0.0181,0,0,0,0,0,-0.0007,-0.0003,-0.0015,-0.0011,-0.0014,-0.0031,-0.0036,-0.0045,-0.0061,-0.0068,-0.0092,-0.0116,-0.0135,-0.0145,-0.0167,-0.0175,-0.02,-0.0176,-0.0171,-0.0168,-0.0161,-0.0192,-0.019,-0.0214,-0.0214,-0.0214,0,0,-0.0,-0.0004,-0.0002,-0.0008,-0.0016,-0.0011,-0.0035,-0.0036,-0.0032,-0.0073,-0.0076,-0.0103,-0.0134,-0.0143,-0.015,-0.0159,-0.0174,-0.0167,-0.0163,-0.0159,-0.0191,-0.0189,-0.0186,-0.0213,-0.0214,-0.0214,0,0,0.002,0.0013,0.0024,0.002,0.0014,0.0005,0.0007,-0.0008,-0.0015,-0.0022,-0.0049,-0.0069,-0.0098,-0.0117,-0.013,-0.0117,-0.0151,-0.0124,-0.0089,-0.0119,-0.0117,-0.0116,-0.0141,-0.0142,-0.012,-0.012,-0.012,0,0.0028,0.004,0.0026,0.0036,0.0039,0.0017,0.0031,0.0023,0.0004,0.0003,-0.0015,-0.0055,-0.0085,-0.0093,-0.0088,-0.0107,-0.0127,-0.0104,-0.0113,-0.0112,-0.0111,-0.0138,-0.014,-0.0117,-0.0118,-0.0118,-0.0118,0,0.0055,0.0065,0.0072,0.008,0.0081,0.0089,0.0079,0.0078,0.0065,0.0053,0.004,-0.0002,-0.0024,-0.0038,-0.0059,-0.0066,-0.0083,-0.0104,-0.0123,-0.0105,-0.0135,-0.0138,-0.0113,-0.0114,-0.0115,-0.0116,0,0,0.0075,0.0089,0.0092,0.0107,0.0105,0.0114,0.0123,0.0126,0.0139,0.0108,0.0114,0.0074,0.005,0.0033,0.0,-0.0026,-0.0044,-0.0057,-0.006,-0.0076,-0.0105,-0.0109,-0.0113,-0.0066,-0.0066,-0.0066,-0.0125,0,0.0101,0.0133,0.0132,0.0166,0.0183,0.0172,0.0186,0.0186,0.0177,0.0176,0.0131,0.0122,0.0079,0.0071,0.0037,-0.0023,-0.0051,-0.0026,-0.0124,-0.0127,-0.0128,-0.0116,-0.0067,-0.0128,-0.0129,-0.013,-0.013,0,0.0128,0.0148,0.0185,0.0216,0.0224,0.0243,0.0267,0.0277,0.0268,0.0258,0.0236,0.02,0.0162,0.0118,0.0026,0.0046,-0.0021,-0.0074,-0.0078,-0.0103,-0.0137,-0.0152,-0.0137,-0.0136,-0.0136,-0.0135,-0.0135,0,0.0153,0.0187,0.0221,0.023,0.0259,0.0281,0.0299,0.0305,0.0324,0.0314,0.032,0.0263,0.0238,0.0149,0.0041,0.0034,-0.0065,-0.0093,-0.016,-0.0162,-0.0167,-0.0168,-0.016,-0.016,-0.016,-0.016,-0.016,0,0.0179,0.0208,0.024,0.0261,0.0311,0.0321,0.0371,0.0378,0.0394,0.0422,0.0369,0.0368,0.0244,0.0171,0.0065,-0.0052,-0.005,-0.0149,-0.0175,-0.0141,-0.0139,-0.0169,-0.0169,-0.0162,-0.0162,-0.0161,-0.0161,0,0.0197,0.0216,0.026,0.0304,0.0325,0.0364,0.0423,0.0455,0.0467,0.0501,0.0501,0.0445,0.0352,0.0224,0.0077,-0.0014,-0.0131,-0.0176,-0.0119,-0.0142,-0.0215,-0.0212,-0.0255,-0.0255,-0.0256,-0.0256,-0.0256,0,0.0207,0.0232,0.0293,0.0327,0.0352,0.0411,0.0451,0.0487,0.0523,0.0548,0.0562,0.0494,0.0436,0.0239,0.0092,-0.0104,-0.014,-0.0202,-0.0219,-0.0202,-0.0224,-0.022,-0.0216,-0.0257,-0.0257,-0.0257,-0.0257,0,0.0224,0.0246,0.0282,0.0348,0.0402,0.0466,0.0529,0.0561,0.0604,0.0619,0.0617,0.0522,0.0415,0.0249,0.0099,-0.0047,-0.0161,-0.0208,-0.0209,-0.0225,-0.0206,-0.0226,-0.0222,-0.0259,-0.0259,-0.0259,-0.0259,0,0.0231,0.0254,0.0299,0.0359,0.0429,0.0495,0.0535,0.0583,0.0622,0.0654,0.0651,0.0545,0.0486,0.0278,0.014,-0.0001,-0.0048,-0.0105,-0.0112,-0.0112,-0.0059,-0.0014,-0.0024,0,0,0,0,0,0.0227,0.0247,0.0304,0.0367,0.044,0.0484,0.0571,0.0606,0.0653,0.0661,0.0663,0.0568,0.0378,0.0295,0.0154,0.0102,-0.0092,-0.0072,-0.0166,-0.0268,-0.0267,-0.023,0,0,0,0,0,0,0.0219,0.0262,0.029,0.0364,0.0409,0.0491,0.055,0.059,0.06,0.0631,0.0535,0.0513,0.0325,0.0452,0.0142,0.0101,0.0018,-0.0153,-0.0157,-0.027,-0.0268,-0.0266,-0.0228,0,0,0,0,0]}]]